Regional Weather Roundup
Issued by NWS Upton, NY

Current Version | Previous Version | Graphics & Text | Print | Product List | Glossary Off
Versions: 1 2 3 4 5 6 7 8 9 10 11 12 13 14 15 16 17 18 19 20 21 22 23 24 25 26 27 28 29 30 31 32 33 34 35 36 37 38 39 40 41 42 43 44 45 46 47 48 49 50

465
ASUS41 KOKX 280404
RWROKX

REGIONAL WEATHER ROUNDUP
NATIONAL WEATHER SERVICE NEW YORK NY
1200 AM EDT THU APR 28 2016

NOTE: "FAIR" INDICATES FEW OR NO CLOUDS BELOW 12,000 FEET WITH NO
SIGNIFICANT WEATHER AND/OR OBSTRUCTIONS TO VISIBILITY.

NYZ071-072-176-178-NJZ106-104-280500-
NEW YORK CITY METRO AREA


CITY           SKY/WX    TMP DP  RH WIND       PRES   REMARKS
CENTRAL PARK   CLEAR     53  43  68 W5        29.94R
LAGUARDIA APRT PTCLDY    55  44  66 W5        29.91R
KENNEDY INTL   PTCLDY    52  47  83 SW9       29.93R
NEWARK/LIBERTY PTCLDY    52  44  74 W6        29.92R
BRNX BOT. GARD   N/A     54  43  66 W5        29.91F
TETERBORO      CLEAR     51  42  71 CALM      29.91R
$$

NYZ177-179-078>081-280500-
LONG ISLAND NEW YORK

CITY           SKY/WX    TMP DP  RH WIND       PRES   REMARKS
FARMINGDALE    CLEAR     49  44  83 W5        29.91S
ISLIP          PTCLDY    48  43  82 W7        29.90S
SHIRLEY        PTCLDY    49  43  80 W7        29.91S
RIVERHEAD        N/A     46  43  87 CALM      29.90R
WESTHAMPTON    CLEAR     45  42  89 SW6       29.92R
EAST HAMPTON   FAIR      42  38  84 CALM      29.89S
MONTAUK POINT    N/A     47  41  80 W3        29.91R
$$

NYZ052-065-067-280500-
HUDSON VALLEY

CITY           SKY/WX    TMP DP  RH WIND       PRES   REMARKS
WHITE PLAINS   PTCLDY    50  44  80 W6        29.90R
NEWBURGH       CLEAR     48  37  66 NW9       29.92R
MONTGOMERY     CLOUDY    46  34  62 NW5       29.92R
POUGHKEEPSIE   CLOUDY    53  27  36 N5        29.92R
ALBANY         PTCLDY    42  16  34 W8        29.95R
$$

NJZ001-105-106-008-010-013-015-019>022-104-280500-
NEW JERSEY

CITY           SKY/WX    TMP DP  RH WIND       PRES   REMARKS
NEWARK/LIBERTY PTCLDY    52  44  74 W6        29.92R
TETERBORO      CLEAR     51  42  71 CALM      29.91R
CALDWELL       CLEAR     51  44  77 CALM      29.93R
MORRISTOWN     CLEAR     45  41  87 CALM      29.93R
SOMERVILLE     CLEAR     44  41  89 CALM      29.92R FOG
SUSSEX         PTCLDY    45  41  86 CALM      29.94R
ANDOVER          N/A     46  43  89 CALM      29.94R
TRENTON        CLEAR     49  43  80 CALM      29.94R
MILLVILLE      MOCLDY    44  43  96 CALM      29.94R
ATLANTIC CITY  CLEAR     47  43  86 SW3       29.94R
WRIGHTSTOWN    CLEAR     46  44  95 SW2       29.92R
TOMS RIVER     CLEAR     41  37  87 CALM      29.94R
BELMAR         CLEAR     46  44  93 W7        29.94S
$$

PAZ047>061-062-071-280500-
EASTERN PENNSYLVANIA

CITY           SKY/WX    TMP DP  RH WIND       PRES   REMARKS
PHILADELPHIA   CLOUDY    51  45  79 W7        29.96R
ALLENTOWN      CLEAR     44  41  89 SW6       29.93S FOG
SCRANTON       PTCLDY    48  30  49 E3        29.94R
$$

CTZ002-004>006-009-010-012-RIZ004-006-007-MAZ004-011-015-280500-
SOUTHERN NEW ENGLAND
 IN CT

CITY           SKY/WX    TMP DP  RH WIND       PRES   REMARKS
BRADLEY INTL   PTCLDY    49  25  39 NW7       29.90R
HARTFORD       PTCLDY    48  40  73 CALM      29.91R
DANBURY        CLOUDY    44  40  85 CALM      29.92R
WTRBRY/OXFORD    N/A     45  39  81 CALM      29.92R
BRIDGEPORT     PTCLDY    50  44  80 W6        29.91R
MERIDEN        PTCLDY    44  39  82 CALM      29.91R
NEW HAVEN      CLOUDY    50  43  77 W6        29.90R
CHESTER        FAIR      45  41  87 CALM      29.90R
GROTON         CLEAR     46  43  89 NW5       29.90R
WILLIMANTIC    CLEAR     45  38  76 CALM      29.91R

 IN RI

CITY           SKY/WX    TMP DP  RH WIND       PRES   REMARKS
PROVIDENCE     CLEAR     46  38  73 W9        29.89R
BLOCK ISLAND   CLEAR     45  41  86 W8        29.91R
WESTERLY       CLEAR     48  36  63 W5        29.90R

 IN MA

CITY           SKY/WX    TMP DP  RH WIND       PRES   REMARKS
BOSTON         CLEAR     52  23  32 NW10      29.87R
WORCESTER      CLEAR     46  17  31 W12G22    29.87R
WESTFIELD      CLEAR     49  19  30 N8        29.91R
PROVINCETOWN   CLEAR     44  40  85 W13       29.87R
NANTUCKET      CLEAR     46  42  86 W12       29.88S
$$

ANZ330-335-338-340-345-350-353-355-280500-
COASTAL MARINE OBSERVATIONS


STATION/POSITION TIME  SKY/WX   TEMP    WIND        PRES    VSBY  WAVE
                                AIR SEA DIR/SP/G                  HT/PER
                 (UTC)          (F)     (DEG/KT/KT) (MB)    (MI)  (FT/S)
NY HARB ENTRANCE 0250            52 52  240/ 10/ 12 1012.5          3/ 8
20S FIRE ISLAND  0250            49 49  240/ 10/ 12 1012.8          3/ 7
GREAT SOUTH BAY  0300            52 59  260/ 14/ 16   N/A
23 SSW MONTAUK P 0350            47 47  240/ 12/ 14 1012.0          3/ 8
15 E BARNEGAT LI 0322               51                N/A           3/ 7
HUDSON CANYON    0250            48 49              1012.5          4/ 7
KINGS POINT      0300            53 55              1012.4
EXECUTION ROCKS  NOT AVBL
CENTRAL LI SOUND 0300            50     240/ 10/ 12   N/A           1/ 3
EASTERN LI SOUND 0300            48 47  260/ 10/ 12   N/A
ROBBINS REEF     0300            53                 1012.2
$$


>>>>>>>>>>>>>>>>>>>>>>>>>>>> KEY <<<<<<<<<<<<<<<<<<<<<<<<<<<
>                                                          <
>     SKY/WX - SKY CONDITION/PRESENT WEATHER               <
>     TMP    - TEMPERATURE IN FAHRENHEIT                   <
>     DP     - DEWPOINT IN FAHRENHEIT                      <
>     RH     - RELATIVE HUMIDITY IN PERCENT                <
>     WIND   - DIRECTION AND SPEED IN MPH                  <
>     PRES   - MEAN SEA LEVEL PRESSURE IN INCHES OF HG     <
>     WCI    - WIND CHILL INDEX                            <
>     VSB    - VISIBILITY IN MILES                         <
>     HX     - HEAT INDEX                                  <
>     TC     - TEMPERATURE IN CELSIUS                      <
>     VRB    - VARIABLE WIND DIRECTION                     <
>                                                          <
>>>>>>>>>>>>>>>>>>>>>>>>>>>> KEY <<<<<<<<<<<<<<<<<<<<<<<<<<<






USA.gov is the U.S. government's official web portal to all federal, state and local government web resources and services.